User: anonymous   Login
Location: ??????-???
(48.4261°N, 37.7652°E)
Time: 12:12:24
(UTC+00:00)
Language:

IRS-P3 - Orbit

View from above orbital plane
View from above orbital plane
View from above satellite
View from above satellite

Ground track
Ground track

The orbit data is extracted from the following two-line orbital elements,

1 23827U 96017A   20226.86110917 -.00000005 +00000-0 +17869-4 0  9991
2 23827 098.8491 176.0566 0002706 323.5952 036.5041 14.22622719266456
Epoch (UTC): 13 August 2020 20:39:59
Eccentricity: 0.0002706
inclination: 98.8491°
perigee height: 814 km
apogee height: 818 km
right ascension of ascending node: 176.0566°
argument of perigee: 323.5952°
revolutions per day: 14.22622719
mean anomaly at epoch: 36.5041°
orbit number at epoch: 26645

The dashed part of the orbit path shows where the satellite is in the earth's shadow,  

DLR